Dades meteomassalio
Diari Summary for Juliol 4, 2017 Units:  Metric    English   Both
« Previous Day
Next Day »
Diari Semanal Mensual Anual Personalitzat
  Maxima: Minima: Mijana:
Temperatura: 33.1 °C 15.2 °C 25.2 °C
Rosada: 15.4 °C 11.2 °C 13.5 °C
Humitat: 77 % 32 % 51 %
Velocitat del vent: 33.8 km/h 0.0 km/h 9 km/h
Racha vent: 33.8 km/h - -
Vent:- - ESE
Pressio: 1018.5 hPa 1013.4 hPa -
Pluja: 0.0 mm    
Historical Graphs
 
 
Tabular Data for Juliol 4, 2017
Time Temperature Dew Point Pressure Wind Wind Speed Wind Gust Humidity Rainfall Rate (Hourly) solar Conditions
00:01 23.4 °C 14.9 °C 1018.5 hPa Calm     59 % 0.0 mm 0.0 W/m2 CLR
00:06 23.3 °C 14.8 °C 1018.5 hPa Calm     59 % 0.0 mm 0.0 W/m2 CLR
00:11 23.2 °C 15.0 °C 1018.5 hPa Calm     60 % 0.0 mm 0.0 W/m2 CLR
00:16 23.1 °C 14.9 °C 1018.5 hPa Calm     60 % 0.0 mm 0.0 W/m2 CLR
00:21 22.9 °C 14.9 °C 1018.5 hPa Calm     61 % 0.0 mm 0.0 W/m2 CLR
00:26 22.8 °C 14.9 °C 1018.5 hPa Calm     61 % 0.0 mm 0.0 W/m2 CLR
00:31 22.6 °C 14.9 °C 1018.5 hPa Calm     62 % 0.0 mm 0.0 W/m2 CLR
00:36 22.4 °C 14.8 °C 1018.5 hPa Calm     62 % 0.0 mm 0.0 W/m2 CLR
00:41 22.3 °C 14.7 °C 1018.5 hPa Calm     62 % 0.0 mm 0.0 W/m2 CLR
00:46 22.1 °C 14.5 °C 1018.5 hPa Calm     62 % 0.0 mm 0.0 W/m2 CLR
00:52 21.9 °C 14.5 °C 1018.5 hPa Calm     63 % 0.0 mm 0.0 W/m2 CLR
00:57 21.8 °C 14.4 °C 1018.5 hPa Calm     63 % 0.0 mm 0.0 W/m2 CLR
01:02 21.6 °C 13.9 °C 1018.5 hPa Calm     62 % 0.0 mm 0.0 W/m2 CLR
01:07 21.3 °C 14.0 °C 1018.5 hPa Calm     63 % 0.0 mm 0.0 W/m2 CLR
01:12 21.2 °C 13.9 °C 1018.5 hPa Calm     63 % 0.0 mm 0.0 W/m2 CLR
01:17 21.1 °C 13.8 °C 1018.5 hPa Calm     63 % 0.0 mm 0.0 W/m2 CLR
01:22 20.9 °C 13.8 °C 1018.2 hPa Calm     64 % 0.0 mm 0.0 W/m2 CLR
01:27 20.7 °C 13.8 °C 1018.2 hPa Calm     65 % 0.0 mm 0.0 W/m2 CLR
01:32 20.5 °C 13.9 °C 1018.5 hPa Calm     66 % 0.0 mm 0.0 W/m2 CLR
01:33 20.5 °C 13.9 °C 1018.2 hPa Calm     66 % 0.0 mm 0.0 W/m2 CLR
01:38 20.3 °C 13.8 °C 1018.5 hPa Calm     66 % 0.0 mm 0.0 W/m2 CLR
01:43 20.2 °C 13.7 °C 1018.2 hPa Calm     66 % 0.0 mm 0.0 W/m2 CLR
01:48 20.1 °C 13.8 °C 1018.2 hPa Calm     67 % 0.0 mm 0.0 W/m2 CLR
01:53 20.1 °C 13.7 °C 1018.2 hPa Calm     67 % 0.0 mm 0.0 W/m2 CLR
01:58 19.9 °C 13.8 °C 1018.2 hPa Calm     68 % 0.0 mm 0.0 W/m2 CLR
02:03 19.8 °C 14.0 °C 1018.2 hPa Calm     69 % 0.0 mm 0.0 W/m2 CLR
02:05 19.8 °C 13.9 °C 1018.2 hPa Calm     69 % 0.0 mm 0.0 W/m2 CLR
02:10 19.7 °C 13.8 °C 1018.2 hPa Calm     69 % 0.0 mm 0.0 W/m2 CLR
02:15 19.6 °C 14.0 °C 1018.2 hPa Calm     70 % 0.0 mm 0.0 W/m2 CLR
02:20 19.5 °C 13.9 °C 1018.2 hPa Calm     70 % 0.0 mm 0.0 W/m2 CLR
02:25 19.4 °C 13.8 °C 1018.2 hPa Calm     70 % 0.0 mm 0.0 W/m2 CLR
02:30 19.4 °C 13.8 °C 1018.2 hPa Calm     70 % 0.0 mm 0.0 W/m2 CLR
02:35 19.3 °C 13.9 °C 1018.2 hPa Calm     71 % 0.0 mm 0.0 W/m2 CLR
02:40 19.1 °C 13.7 °C 1018.2 hPa Calm     71 % 0.0 mm 0.0 W/m2 CLR
02:45 19.0 °C 13.6 °C 1018.2 hPa Calm     71 % 0.0 mm 0.0 W/m2 CLR
02:50 18.9 °C 13.7 °C 1018.2 hPa Calm     72 % 0.0 mm 0.0 W/m2 CLR
02:55 18.8 °C 13.6 °C 1018.2 hPa Calm     72 % 0.0 mm 0.0 W/m2 CLR
03:00 18.8 °C 13.4 °C 1018.2 hPa Calm     71 % 0.0 mm 0.0 W/m2 CLR
03:01 18.8 °C 13.4 °C 1018.2 hPa Calm     71 % 0.0 mm 0.0 W/m2 CLR
03:06 18.9 °C 13.5 °C 1018.2 hPa Calm     71 % 0.0 mm 0.0 W/m2 CLR
03:11 19.0 °C 13.6 °C 1017.8 hPa Calm     71 % 0.0 mm 0.0 W/m2 CLR
03:16 19.1 °C 13.4 °C 1017.8 hPa Calm     70 % 0.0 mm 0.0 W/m2 CLR
03:21 19.1 °C 13.4 °C 1017.8 hPa Calm     70 % 0.0 mm 0.0 W/m2 CLR
03:26 18.9 °C 13.1 °C 1017.8 hPa Calm     69 % 0.0 mm 0.0 W/m2 CLR
03:31 18.8 °C 12.9 °C 1017.8 hPa Calm     69 % 0.0 mm 0.0 W/m2 CLR
03:36 18.6 °C 13.1 °C 1017.8 hPa Calm     70 % 0.0 mm 0.0 W/m2 CLR
03:41 18.4 °C 12.8 °C 1017.8 hPa Calm     70 % 0.0 mm 0.0 W/m2 CLR
03:46 18.2 °C 12.9 °C 1017.8 hPa Calm     71 % 0.0 mm 0.0 W/m2 CLR
03:51 17.9 °C 12.6 °C 1017.8 hPa Calm     71 % 0.0 mm 0.0 W/m2 CLR
03:56 17.7 °C 12.4 °C 1017.8 hPa Calm     71 % 0.0 mm 0.0 W/m2 CLR
04:01 17.6 °C 12.5 °C 1017.8 hPa Calm     72 % 0.0 mm 0.0 W/m2 CLR
04:06 17.6 °C 12.7 °C 1017.8 hPa Calm     73 % 0.0 mm 0.0 W/m2 CLR
04:11 17.4 °C 12.6 °C 1017.8 hPa Calm     73 % 0.0 mm 0.0 W/m2 CLR
04:16 17.4 °C 12.5 °C 1017.8 hPa Calm     73 % 0.0 mm 0.0 W/m2 CLR
04:21 17.3 °C 12.4 °C 1017.8 hPa Calm     73 % 0.0 mm 0.0 W/m2 CLR
04:26 17.3 °C 12.4 °C 1017.8 hPa Calm     73 % 0.0 mm 0.0 W/m2 CLR
04:31 17.2 °C 12.3 °C 1017.8 hPa Calm     73 % 0.0 mm 0.0 W/m2 CLR
04:36 17.1 °C 12.4 °C 1017.8 hPa Calm     74 % 0.0 mm 0.0 W/m2 CLR
04:41 16.9 °C 12.3 °C 1017.8 hPa Calm     74 % 0.0 mm 0.0 W/m2 CLR
04:46 16.8 °C 12.2 °C 1017.8 hPa Calm     74 % 0.0 mm 0.0 W/m2 CLR
04:51 16.7 °C 12.3 °C 1017.8 hPa Calm     75 % 0.0 mm 0.0 W/m2 CLR
04:52 16.7 °C 12.2 °C 1017.8 hPa Calm     75 % 0.0 mm 0.0 W/m2 CLR
04:57 16.6 °C 12.2 °C 1017.8 hPa Calm     75 % 0.0 mm 0.0 W/m2 CLR
05:02 16.6 °C 12.2 °C 1017.8 hPa Calm     75 % 0.0 mm 0.0 W/m2 CLR
05:07 16.6 °C 12.1 °C 1017.8 hPa Calm     75 % 0.0 mm 0.0 W/m2 CLR
05:12 16.5 °C 11.8 °C 1017.8 hPa Calm     74 % 0.0 mm 0.0 W/m2 CLR
05:17 16.4 °C 12.0 °C 1017.8 hPa Calm     75 % 0.0 mm 0.0 W/m2 CLR
05:22 16.4 °C 11.9 °C 1017.8 hPa Calm     75 % 0.0 mm 0.0 W/m2 CLR
05:27 16.3 °C 11.8 °C 1017.8 hPa Calm     75 % 0.0 mm 0.0 W/m2 CLR
05:32 16.2 °C 11.8 °C 1018.2 hPa Calm     75 % 0.0 mm 0.0 W/m2 CLR
05:37 16.2 °C 11.7 °C 1018.2 hPa Calm     75 % 0.0 mm 0.0 W/m2 CLR
05:42 16.1 °C 11.8 °C 1018.2 hPa Calm     76 % 0.0 mm 0.0 W/m2 CLR
05:47 16.0 °C 11.8 °C 1018.2 hPa Calm     76 % 0.0 mm 0.0 W/m2 CLR
05:52 15.8 °C 11.6 °C 1018.2 hPa Calm     76 % 0.0 mm 0.0 W/m2 CLR
05:57 15.8 °C 11.6 °C 1018.2 hPa Calm     76 % 0.0 mm 0.0 W/m2 CLR
06:03 15.8 °C 11.6 °C 1018.2 hPa Calm     76 % 0.0 mm 0.0 W/m2 CLR
06:08 15.7 °C 11.5 °C 1018.2 hPa Calm     76 % 0.0 mm 0.0 W/m2 CLR
06:13 15.7 °C 11.5 °C 1018.2 hPa Calm     76 % 0.0 mm 0.0 W/m2 CLR
06:18 15.7 °C 11.4 °C 1018.2 hPa Calm     76 % 0.0 mm 0.0 W/m2 CLR
06:23 15.6 °C 11.4 °C 1018.2 hPa Calm     76 % 0.0 mm 0.0 W/m2 OVC
06:28 15.5 °C 11.5 °C 1018.2 hPa Calm     77 % 0.0 mm 0.0 W/m2 OVC
06:33 15.4 °C 11.4 °C 1018.2 hPa Calm     77 % 0.0 mm 5.0 W/m2 OVC
06:38 15.4 °C 11.4 °C 1018.2 hPa Calm     77 % 0.0 mm 7.0 W/m2 OVC
06:43 15.3 °C 11.3 °C 1018.2 hPa Calm     77 % 0.0 mm 9.0 W/m2 BKN
06:48 15.4 °C 11.4 °C 1018.2 hPa Calm     77 % 0.0 mm 11.0 W/m2 BKN
06:53 15.3 °C 11.3 °C 1018.2 hPa Calm     77 % 0.0 mm 12.0 W/m2 BKN
06:58 15.3 °C 11.3 °C 1018.5 hPa Calm     77 % 0.0 mm 14.0 W/m2 BKN
07:03 15.2 °C 11.2 °C 1018.5 hPa Calm     77 % 0.0 mm 16.0 W/m2 BKN
07:08 15.2 °C 11.2 °C 1018.5 hPa Calm     77 % 0.0 mm 23.0 W/m2 BKN
07:13 15.3 °C 11.3 °C 1018.5 hPa Calm     77 % 0.0 mm 33.0 W/m2 BKN
07:18 15.5 °C 11.5 °C 1018.5 hPa Calm     77 % 0.0 mm 42.0 W/m2 BKN
07:23 15.7 °C 11.7 °C 1018.5 hPa Calm     77 % 0.0 mm 53.0 W/m2 SCT
07:28 15.9 °C 11.7 °C 1018.5 hPa Calm     76 % 0.0 mm 63.0 W/m2 SCT
07:33 16.1 °C 11.8 °C 1018.5 hPa Calm     76 % 0.0 mm 77.0 W/m2 SCT
07:38 16.3 °C 12.1 °C 1018.5 hPa Calm     76 % 0.0 mm 91.0 W/m2 FEW
07:43 16.7 °C 12.1 °C 1018.5 hPa Calm     74 % 0.0 mm 105.0 W/m2 CLR
07:48 17.2 °C 12.3 °C 1018.5 hPa Calm     73 % 0.0 mm 120.0 W/m2 CLR
07:53 17.7 °C 12.4 °C 1018.5 hPa Calm     71 % 0.0 mm 139.0 W/m2 CLR
07:58 18.0 °C 12.4 °C 1018.5 hPa Calm     70 % 0.0 mm 155.0 W/m2 CLR
08:03 18.4 °C 12.8 °C 1018.5 hPa Calm     70 % 0.0 mm 172.0 W/m2 CLR
08:08 18.9 °C 12.9 °C 1018.5 hPa Calm     68 % 0.0 mm 188.0 W/m2 CLR
08:10 19.2 °C 13.1 °C 1018.5 hPa Calm     68 % 0.0 mm 195.0 W/m2 CLR
08:15 19.8 °C 13.2 °C 1018.5 hPa Calm     66 % 0.0 mm 211.0 W/m2 CLR
08:20 20.3 °C 13.3 °C 1018.5 hPa Calm     64 % 0.0 mm 229.0 W/m2 CLR
08:25 20.8 °C 13.5 °C 1018.5 hPa Calm     63 % 0.0 mm 244.0 W/m2 CLR
08:30 21.2 °C 13.3 °C 1018.5 hPa Calm     61 % 0.0 mm 260.0 W/m2 CLR
08:35 21.4 °C 13.3 °C 1018.5 hPa Calm     60 % 0.0 mm 274.0 W/m2 CLR
08:40 21.6 °C 13.4 °C 1018.5 hPa Calm     60 % 0.0 mm 290.0 W/m2 CLR
08:45 21.6 °C 13.4 °C 1018.5 hPa Calm     60 % 0.0 mm 308.0 W/m2 CLR
08:50 21.7 °C 13.6 °C 1018.5 hPa Calm     60 % 0.0 mm 322.0 W/m2 CLR
08:55 21.9 °C 13.8 °C 1018.5 hPa Calm     60 % 0.0 mm 338.0 W/m2 CLR
09:00 22.1 °C 13.4 °C 1018.5 hPa Calm     58 % 0.0 mm 352.0 W/m2 CLR
09:05 22.3 °C 13.4 °C 1018.2 hPa Calm     57 % 0.0 mm 367.0 W/m2 CLR
09:10 22.7 °C 13.8 °C 1018.2 hPa Calm     57 % 0.0 mm 385.0 W/m2 CLR
09:15 23.1 °C 13.8 °C 1018.2 hPa Calm     56 % 0.0 mm 399.0 W/m2 CLR
09:20 23.6 °C 14.0 °C 1018.2 hPa Calm     55 % 0.0 mm 415.0 W/m2 CLR
09:25 24.1 °C 14.2 °C 1018.2 hPa Calm     54 % 0.0 mm 429.0 W/m2 CLR
09:30 24.3 °C 14.1 °C 1018.2 hPa Calm     53 % 0.0 mm 446.0 W/m2 CLR
09:35 24.4 °C 14.2 °C 1018.2 hPa Calm     53 % 0.0 mm 462.0 W/m2 CLR
09:40 24.9 °C 14.7 °C 1018.2 hPa ENE 5.6 km/h 5.6 km/h 53 % 0.0 mm 475.0 W/m2 CLR
09:45 25.2 °C 14.4 °C 1018.2 hPa Calm     51 % 0.0 mm 490.0 W/m2 CLR
09:50 25.2 °C 14.4 °C 1018.2 hPa ENE 9.3 km/h 9.3 km/h 51 % 0.0 mm 504.0 W/m2 CLR
09:55 25.4 °C 14.5 °C 1018.2 hPa ENE 4.8 km/h 4.8 km/h 51 % 0.0 mm 522.0 W/m2 CLR
10:00 25.5 °C 14.6 °C 1018.2 hPa ENE 11.1 km/h 11.1 km/h 51 % 0.0 mm 534.0 W/m2 CLR
10:05 25.6 °C 14.7 °C 1018.2 hPa ENE 9.3 km/h 9.3 km/h 51 % 0.0 mm 550.0 W/m2 CLR
10:10 25.7 °C 14.5 °C 1018.2 hPa ENE 9.7 km/h 9.7 km/h 50 % 0.0 mm 566.0 W/m2 CLR
10:15 25.8 °C 14.6 °C 1018.2 hPa East 7.4 km/h 7.4 km/h 50 % 0.0 mm 580.0 W/m2 CLR
10:20 25.9 °C 14.4 °C 1017.8 hPa East 9.3 km/h 9.3 km/h 49 % 0.0 mm 594.0 W/m2 CLR
10:25 26.1 °C 14.8 °C 1017.8 hPa ENE 7.4 km/h 7.4 km/h 50 % 0.0 mm 610.0 W/m2 CLR
10:30 26.4 °C 14.8 °C 1017.8 hPa NNE 8.0 km/h 8.0 km/h 49 % 0.0 mm 624.0 W/m2 CLR
10:35 26.7 °C 14.4 °C 1017.8 hPa NNE 11.1 km/h 11.1 km/h 47 % 0.0 mm 636.0 W/m2 CLR
10:40 26.8 °C 14.2 °C 1017.8 hPa ENE 8.0 km/h 8.0 km/h 46 % 0.0 mm 649.0 W/m2 CLR
10:45 27.1 °C 14.4 °C 1017.8 hPa Calm     46 % 0.0 mm 661.0 W/m2 CLR
10:50 27.4 °C 14.4 °C 1017.8 hPa Calm     45 % 0.0 mm 677.0 W/m2 CLR
10:55 27.8 °C 14.4 °C 1017.8 hPa ENE 14.8 km/h 14.8 km/h 44 % 0.0 mm 687.0 W/m2 CLR
10:56 27.8 °C 14.4 °C 1017.8 hPa NE 11.1 km/h 11.1 km/h 44 % 0.0 mm 689.0 W/m2 CLR
11:01 28.0 °C 14.6 °C 1017.5 hPa ENE 7.4 km/h 7.4 km/h 44 % 0.0 mm 701.0 W/m2 CLR
11:06 28.1 °C 14.7 °C 1017.5 hPa NE 7.4 km/h 7.4 km/h 44 % 0.0 mm 715.0 W/m2 CLR
11:11 28.1 °C 15.1 °C 1017.5 hPa NE 6.4 km/h 6.4 km/h 45 % 0.0 mm 726.0 W/m2 CLR
11:16 28.2 °C 14.8 °C 1017.5 hPa NE 11.1 km/h 11.1 km/h 44 % 0.0 mm 737.0 W/m2 CLR
11:22 28.3 °C 14.8 °C 1017.5 hPa NE 11.3 km/h 11.3 km/h 44 % 0.0 mm 749.0 W/m2 CLR
11:27 28.3 °C 14.9 °C 1017.5 hPa NE 7.4 km/h 7.4 km/h 44 % 0.0 mm 761.0 W/m2 CLR
11:32 28.7 °C 14.6 °C 1017.5 hPa NE 11.1 km/h 11.1 km/h 42 % 0.0 mm 768.0 W/m2 CLR
11:37 28.8 °C 14.6 °C 1017.5 hPa NE 3.7 km/h 3.7 km/h 42 % 0.0 mm 780.0 W/m2 CLR
11:42 29.1 °C 14.5 °C 1017.2 hPa ENE 9.3 km/h 9.3 km/h 41 % 0.0 mm 789.0 W/m2 CLR
11:47 29.5 °C 14.9 °C 1017.2 hPa ENE 11.1 km/h 11.1 km/h 41 % 0.0 mm 800.0 W/m2 CLR
11:52 29.7 °C 15.1 °C 1017.2 hPa ESE 8.0 km/h 8.0 km/h 41 % 0.0 mm 812.0 W/m2 CLR
11:57 29.9 °C 14.9 °C 1017.2 hPa Calm     40 % 0.0 mm 816.0 W/m2 CLR
12:02 30.1 °C 15.0 °C 1017.2 hPa ESE 4.8 km/h 4.8 km/h 40 % 0.0 mm 830.0 W/m2 CLR
12:07 30.0 °C 14.9 °C 1017.2 hPa ENE 13.0 km/h 13.0 km/h 40 % 0.0 mm 837.0 W/m2 CLR
12:12 29.9 °C 14.9 °C 1016.8 hPa ENE 13.0 km/h 13.0 km/h 40 % 0.0 mm 847.0 W/m2 CLR
12:17 30.0 °C 14.6 °C 1016.8 hPa NE 14.8 km/h 14.8 km/h 39 % 0.0 mm 853.0 W/m2 CLR
12:22 30.3 °C 14.4 °C 1016.8 hPa NE 16.7 km/h 16.7 km/h 38 % 0.0 mm 861.0 W/m2 CLR
12:27 30.3 °C 13.9 °C 1016.8 hPa NNE 18.5 km/h 18.5 km/h 37 % 0.0 mm 868.0 W/m2 CLR
12:32 30.3 °C 14.4 °C 1016.8 hPa ENE 14.8 km/h 14.8 km/h 38 % 0.0 mm 877.0 W/m2 CLR
12:37 30.6 °C 14.6 °C 1016.8 hPa ESE 13.0 km/h 13.0 km/h 38 % 0.0 mm 886.0 W/m2 CLR
12:42 30.7 °C 14.7 °C 1016.5 hPa NE 14.8 km/h 14.8 km/h 38 % 0.0 mm 889.0 W/m2 CLR
12:47 30.8 °C 14.4 °C 1016.5 hPa North 4.8 km/h 4.8 km/h 37 % 0.0 mm 895.0 W/m2 CLR
12:52 31.1 °C 14.7 °C 1016.5 hPa NE 14.5 km/h 14.5 km/h 37 % 0.0 mm 902.0 W/m2 CLR
12:57 31.2 °C 14.8 °C 1016.5 hPa NE 14.8 km/h 14.8 km/h 37 % 0.0 mm 905.0 W/m2 CLR
13:02 31.4 °C 14.9 °C 1016.5 hPa NNE 16.7 km/h 16.7 km/h 37 % 0.0 mm 911.0 W/m2 CLR
13:07 31.4 °C 14.9 °C 1016.1 hPa NE 22.5 km/h 22.5 km/h 37 % 0.0 mm 916.0 W/m2 CLR
13:12 31.3 °C 14.8 °C 1016.1 hPa NNW 18.5 km/h 18.5 km/h 37 % 0.0 mm 919.0 W/m2 CLR
13:17 31.4 °C 14.5 °C 1016.1 hPa ENE 13.0 km/h 13.0 km/h 36 % 0.0 mm 926.0 W/m2 CLR
13:22 31.6 °C 14.7 °C 1016.1 hPa NNW 7.4 km/h 7.4 km/h 36 % 0.0 mm 926.0 W/m2 CLR
13:27 31.7 °C 14.8 °C 1016.1 hPa North 5.6 km/h 5.6 km/h 36 % 0.0 mm 928.0 W/m2 CLR
13:32 31.9 °C 14.1 °C 1016.1 hPa ESE 3.7 km/h 3.7 km/h 34 % 0.0 mm 930.0 W/m2 CLR
13:37 32.2 °C 14.8 °C 1015.8 hPa East 9.7 km/h 9.7 km/h 35 % 0.0 mm 933.0 W/m2 CLR
13:42 32.4 °C 14.6 °C 1015.8 hPa East 4.8 km/h 4.8 km/h 34 % 0.0 mm 935.0 W/m2 CLR
13:47 32.9 °C 14.5 °C 1015.8 hPa ENE 7.4 km/h 7.4 km/h 33 % 0.0 mm 935.0 W/m2 CLR
13:52 33.0 °C 14.1 °C 1015.8 hPa Calm     32 % 0.0 mm 935.0 W/m2 CLR
13:57 32.8 °C 14.9 °C 1015.8 hPa Calm     34 % 0.0 mm 937.0 W/m2 CLR
14:02 32.7 °C 14.3 °C 1015.8 hPa NNE 9.3 km/h 9.3 km/h 33 % 0.0 mm 939.0 W/m2 CLR
14:07 32.7 °C 14.8 °C 1015.8 hPa East 16.7 km/h 16.7 km/h 34 % 0.0 mm 937.0 W/m2 CLR
14:12 32.5 °C 15.1 °C 1015.8 hPa East 9.7 km/h 9.7 km/h 35 % 0.0 mm 937.0 W/m2 CLR
14:17 32.8 °C 14.8 °C 1015.5 hPa Calm     34 % 0.0 mm 933.0 W/m2 CLR
14:22 32.7 °C 14.8 °C 1015.5 hPa NE 7.4 km/h 7.4 km/h 34 % 0.0 mm 932.0 W/m2 CLR
14:27 32.8 °C 14.9 °C 1015.5 hPa SE 11.3 km/h 11.3 km/h 34 % 0.0 mm 928.0 W/m2 CLR
14:32 33.0 °C 15.1 °C 1015.5 hPa ESE 19.3 km/h 19.3 km/h 34 % 0.0 mm 932.0 W/m2 CLR
14:37 32.7 °C 14.8 °C 1015.1 hPa SSE 11.1 km/h 11.1 km/h 34 % 0.0 mm 930.0 W/m2 CLR
14:42 32.6 °C 15.1 °C 1015.1 hPa ENE 24.1 km/h 24.1 km/h 35 % 0.0 mm 923.0 W/m2 CLR
14:47 32.8 °C 15.3 °C 1015.1 hPa SE 20.4 km/h 20.4 km/h 35 % 0.0 mm 921.0 W/m2 CLR
14:52 32.9 °C 15.0 °C 1015.1 hPa SE 16.7 km/h 16.7 km/h 34 % 0.0 mm 919.0 W/m2 CLR
14:57 33.1 °C 15.1 °C 1015.1 hPa ENE 19.3 km/h 19.3 km/h 34 % 0.0 mm 914.0 W/m2 CLR
15:02 32.9 °C 15.0 °C 1015.1 hPa ESE 20.4 km/h 20.4 km/h 34 % 0.0 mm 914.0 W/m2 CLR
15:07 32.7 °C 15.2 °C 1014.8 hPa SSE 9.3 km/h 9.3 km/h 35 % 0.0 mm 907.0 W/m2 CLR
15:12 32.7 °C 15.3 °C 1014.8 hPa East 14.8 km/h 14.8 km/h 35 % 0.0 mm 902.0 W/m2 CLR
15:17 32.7 °C 15.3 °C 1014.8 hPa East 16.7 km/h 16.7 km/h 35 % 0.0 mm 900.0 W/m2 CLR
15:22 32.8 °C 15.3 °C 1014.8 hPa ESE 16.1 km/h 16.1 km/h 35 % 0.0 mm 893.0 W/m2 CLR
15:27 32.8 °C 14.8 °C 1014.8 hPa ESE 24.1 km/h 24.1 km/h 34 % 0.0 mm 888.0 W/m2 CLR
15:32 32.7 °C 14.8 °C 1014.8 hPa East 18.5 km/h 18.5 km/h 34 % 0.0 mm 877.0 W/m2 CLR
15:37 32.7 °C 15.3 °C 1014.8 hPa ESE 22.2 km/h 22.2 km/h 35 % 0.0 mm 881.0 W/m2 CLR
15:42 32.8 °C 15.3 °C 1014.8 hPa East 14.8 km/h 14.8 km/h 35 % 0.0 mm 861.0 W/m2 CLR
15:47 32.8 °C 15.3 °C 1014.4 hPa ENE 22.2 km/h 22.2 km/h 35 % 0.0 mm 860.0 W/m2 CLR
15:53 32.9 °C 15.4 °C 1014.4 hPa ENE 18.5 km/h 18.5 km/h 35 % 0.0 mm 849.0 W/m2 CLR
15:58 32.9 °C 14.6 °C 1014.8 hPa ESE 25.9 km/h 25.9 km/h 33 % 0.0 mm 851.0 W/m2 CLR
16:03 32.7 °C 14.3 °C 1014.4 hPa SE 24.1 km/h 24.1 km/h 33 % 0.0 mm 833.0 W/m2 CLR
16:08 32.6 °C 14.7 °C 1014.4 hPa South 20.4 km/h 20.4 km/h 34 % 0.0 mm 824.0 W/m2 CLR
16:13 32.7 °C 14.8 °C 1014.4 hPa ESE 18.5 km/h 18.5 km/h 34 % 0.0 mm 817.0 W/m2 CLR
16:18 32.7 °C 14.8 °C 1014.4 hPa ESE 18.5 km/h 18.5 km/h 34 % 0.0 mm 810.0 W/m2 CLR
16:23 32.5 °C 14.6 °C 1014.4 hPa SE 25.9 km/h 25.9 km/h 34 % 0.0 mm 798.0 W/m2 CLR
16:28 32.5 °C 14.6 °C 1014.4 hPa SSE 24.1 km/h 24.1 km/h 34 % 0.0 mm 788.0 W/m2 CLR
16:33 32.2 °C 14.8 °C 1014.4 hPa SSE 20.9 km/h 20.9 km/h 35 % 0.0 mm 779.0 W/m2 CLR
16:38 32.3 °C 14.9 °C 1014.4 hPa ENE 16.7 km/h 16.7 km/h 35 % 0.0 mm 766.0 W/m2 CLR
16:43 32.4 °C 14.9 °C 1014.4 hPa ESE 24.1 km/h 24.1 km/h 35 % 0.0 mm 756.0 W/m2 CLR
16:48 32.3 °C 14.4 °C 1014.4 hPa ESE 18.5 km/h 18.5 km/h 34 % 0.0 mm 745.0 W/m2 CLR
16:53 32.3 °C 14.4 °C 1014.4 hPa SE 31.5 km/h 31.5 km/h 34 % 0.0 mm 738.0 W/m2 CLR
16:58 32.3 °C 14.4 °C 1014.4 hPa SE 29.0 km/h 29.0 km/h 34 % 0.0 mm 729.0 W/m2 CLR
17:03 31.9 °C 14.1 °C 1014.4 hPa ESE 29.6 km/h 29.6 km/h 34 % 0.0 mm 715.0 W/m2 CLR
17:08 31.9 °C 14.5 °C 1014.1 hPa ESE 27.8 km/h 27.8 km/h 35 % 0.0 mm 705.0 W/m2 CLR
17:14 32.3 °C 14.9 °C 1014.4 hPa SSE 25.7 km/h 25.7 km/h 35 % 0.0 mm 691.0 W/m2 CLR
17:19 32.1 °C 14.2 °C 1014.1 hPa ESE 25.9 km/h 25.9 km/h 34 % 0.0 mm 680.0 W/m2 CLR
17:24 32.0 °C 14.6 °C 1014.1 hPa East 22.2 km/h 22.2 km/h 35 % 0.0 mm 668.0 W/m2 CLR
17:29 32.0 °C 14.6 °C 1014.1 hPa ESE 32.2 km/h 32.2 km/h 35 % 0.0 mm 656.0 W/m2 CLR
17:30 31.9 °C 14.1 °C 1014.1 hPa East 31.5 km/h 31.5 km/h 34 % 0.0 mm 652.0 W/m2 CLR
17:35 32.1 °C 14.7 °C 1014.1 hPa ESE 24.1 km/h 24.1 km/h 35 % 0.0 mm 640.0 W/m2 CLR
17:40 32.0 °C 14.6 °C 1013.8 hPa ESE 33.8 km/h 33.8 km/h 35 % 0.0 mm 624.0 W/m2 CLR
17:45 31.8 °C 14.5 °C 1013.8 hPa SE 29.6 km/h 29.6 km/h 35 % 0.0 mm 608.0 W/m2 CLR
17:50 32.1 °C 14.2 °C 1013.8 hPa SSE 22.2 km/h 22.2 km/h 34 % 0.0 mm 599.0 W/m2 CLR
17:55 32.0 °C 14.2 °C 1013.8 hPa ESE 22.2 km/h 22.2 km/h 34 % 0.0 mm 584.0 W/m2 CLR
18:00 31.9 °C 14.1 °C 1013.8 hPa ESE 25.9 km/h 25.9 km/h 34 % 0.0 mm 570.0 W/m2 CLR
18:05 32.1 °C 14.2 °C 1013.8 hPa ESE 20.4 km/h 20.4 km/h 34 % 0.0 mm 555.0 W/m2 CLR
18:10 32.0 °C 13.7 °C 1013.8 hPa ESE 25.9 km/h 25.9 km/h 33 % 0.0 mm 545.0 W/m2 CLR
18:15 32.0 °C 13.2 °C 1013.8 hPa SE 24.1 km/h 24.1 km/h 32 % 0.0 mm 529.0 W/m2 CLR
18:20 31.8 °C 13.1 °C 1013.8 hPa SE 31.5 km/h 31.5 km/h 32 % 0.0 mm 515.0 W/m2 CLR
18:25 31.7 °C 13.4 °C 1013.8 hPa SSE 29.6 km/h 29.6 km/h 33 % 0.0 mm 501.0 W/m2 CLR
18:30 31.6 °C 13.3 °C 1013.8 hPa ESE 24.1 km/h 24.1 km/h 33 % 0.0 mm 483.0 W/m2 CLR
18:35 31.4 °C 13.2 °C 1013.8 hPa East 22.2 km/h 22.2 km/h 33 % 0.0 mm 469.0 W/m2 CLR
18:40 31.3 °C 13.6 °C 1013.8 hPa ESE 20.4 km/h 20.4 km/h 34 % 0.0 mm 455.0 W/m2 CLR
18:45 31.1 °C 13.4 °C 1013.8 hPa ESE 25.9 km/h 25.9 km/h 34 % 0.0 mm 439.0 W/m2 CLR
18:50 31.1 °C 13.8 °C 1013.8 hPa ESE 18.5 km/h 18.5 km/h 35 % 0.0 mm 420.0 W/m2 CLR
18:55 31.1 °C 13.8 °C 1013.4 hPa SE 20.4 km/h 20.4 km/h 35 % 0.0 mm 408.0 W/m2 CLR
19:00 31.1 °C 13.8 °C 1013.4 hPa ESE 18.5 km/h 18.5 km/h 35 % 0.0 mm 392.0 W/m2 CLR
19:05 31.0 °C 13.7 °C 1013.8 hPa SE 20.4 km/h 20.4 km/h 35 % 0.0 mm 376.0 W/m2 CLR
19:10 30.9 °C 13.7 °C 1013.4 hPa SE 24.1 km/h 24.1 km/h 35 % 0.0 mm 360.0 W/m2 CLR
19:15 30.6 °C 13.8 °C 1013.8 hPa ESE 29.6 km/h 29.6 km/h 36 % 0.0 mm 345.0 W/m2 CLR
19:20 30.6 °C 13.8 °C 1013.8 hPa SE 27.8 km/h 27.8 km/h 36 % 0.0 mm 330.0 W/m2 CLR
19:25 30.5 °C 13.3 °C 1013.8 hPa SE 24.1 km/h 24.1 km/h 35 % 0.0 mm 316.0 W/m2 CLR
19:30 30.4 °C 13.2 °C 1013.8 hPa SE 27.8 km/h 27.8 km/h 35 % 0.0 mm 301.0 W/m2 CLR
19:35 30.5 °C 13.3 °C 1013.8 hPa SE 22.2 km/h 22.2 km/h 35 % 0.0 mm 283.0 W/m2 CLR
19:40 30.4 °C 13.2 °C 1013.8 hPa SSE 22.2 km/h 22.2 km/h 35 % 0.0 mm 265.0 W/m2 CLR
19:45 30.2 °C 13.5 °C 1013.8 hPa ESE 24.1 km/h 24.1 km/h 36 % 0.0 mm 250.0 W/m2 CLR
19:50 30.1 °C 12.9 °C 1013.8 hPa SSE 27.8 km/h 27.8 km/h 35 % 0.0 mm 236.0 W/m2 CLR
19:55 30.1 °C 12.9 °C 1013.8 hPa SE 19.3 km/h 19.3 km/h 35 % 0.0 mm 216.0 W/m2 CLR
20:00 29.9 °C 13.2 °C 1013.8 hPa ESE 25.7 km/h 25.7 km/h 36 % 0.0 mm 199.0 W/m2 CLR
20:05 29.9 °C 12.8 °C 1013.8 hPa South 17.7 km/h 17.7 km/h 35 % 0.0 mm 183.0 W/m2 CLR
20:06 29.9 °C 12.8 °C 1013.8 hPa SSE 18.5 km/h 18.5 km/h 35 % 0.0 mm 179.0 W/m2 CLR
20:11 29.7 °C 13.4 °C 1013.8 hPa SE 18.5 km/h 18.5 km/h 37 % 0.0 mm 163.0 W/m2 CLR
20:16 29.6 °C 13.4 °C 1013.8 hPa SE 22.2 km/h 22.2 km/h 37 % 0.0 mm 148.0 W/m2 CLR
20:21 29.4 °C 13.2 °C 1013.4 hPa SE 24.1 km/h 24.1 km/h 37 % 0.0 mm 135.0 W/m2 CLR
20:26 29.2 °C 13.0 °C 1013.8 hPa SE 22.2 km/h 22.2 km/h 37 % 0.0 mm 116.0 W/m2 CLR
20:31 29.1 °C 12.9 °C 1013.8 hPa SE 22.2 km/h 22.2 km/h 37 % 0.0 mm 100.0 W/m2 CLR
20:36 28.9 °C 12.8 °C 1013.8 hPa South 22.2 km/h 22.2 km/h 37 % 0.0 mm 86.0 W/m2 CLR
20:41 28.9 °C 13.2 °C 1013.8 hPa SE 20.4 km/h 20.4 km/h 38 % 0.0 mm 72.0 W/m2 FEW
20:46 28.7 °C 12.9 °C 1013.8 hPa SSE 20.4 km/h 20.4 km/h 38 % 0.0 mm 60.0 W/m2 SCT
20:51 28.6 °C 13.2 °C 1013.8 hPa SE 20.4 km/h 20.4 km/h 39 % 0.0 mm 18.0 W/m2 BKN
20:56 28.4 °C 13.1 °C 1013.8 hPa SE 18.5 km/h 18.5 km/h 39 % 0.0 mm 33.0 W/m2 BKN
21:01 28.2 °C 12.9 °C 1014.1 hPa SSE 25.9 km/h 25.9 km/h 39 % 0.0 mm 25.0 W/m2 BKN
21:06 28.1 °C 12.8 °C 1013.8 hPa SSE 18.5 km/h 18.5 km/h 39 % 0.0 mm 18.0 W/m2 BKN
21:11 27.9 °C 13.1 °C 1014.1 hPa South 16.7 km/h 16.7 km/h 40 % 0.0 mm 12.0 W/m2 BKN
21:16 27.7 °C 12.9 °C 1014.1 hPa SSE 17.7 km/h 17.7 km/h 40 % 0.0 mm 11.0 W/m2 BKN
21:21 27.5 °C 13.1 °C 1014.1 hPa SSE 11.1 km/h 11.1 km/h 41 % 0.0 mm 9.0 W/m2 BKN
21:26 27.3 °C 12.9 °C 1014.1 hPa SE 14.8 km/h 14.8 km/h 41 % 0.0 mm 7.0 W/m2 BKN
21:31 27.1 °C 13.1 °C 1014.1 hPa SE 16.1 km/h 16.1 km/h 42 % 0.0 mm 5.0 W/m2 OVC
21:36 26.8 °C 13.2 °C 1014.4 hPa SSE 18.5 km/h 18.5 km/h 43 % 0.0 mm 0.0 W/m2 OVC
21:41 26.6 °C 12.9 °C 1014.1 hPa SE 14.8 km/h 14.8 km/h 43 % 0.0 mm 0.0 W/m2 OVC
21:46 26.4 °C 12.8 °C 1014.1 hPa SSE 9.7 km/h 9.7 km/h 43 % 0.0 mm 0.0 W/m2 CLR
21:51 26.2 °C 12.7 °C 1014.4 hPa SE 7.4 km/h 7.4 km/h 43 % 0.0 mm 0.0 W/m2 CLR
22:01 25.9 °C 12.7 °C 1014.4 hPa SE 9.3 km/h 9.3 km/h 44 % 0.0 mm 0.0 W/m2 CLR
22:06 25.7 °C 12.6 °C 1014.4 hPa SSE 13.0 km/h 13.0 km/h 44 % 0.0 mm 0.0 W/m2 CLR
22:11 25.6 °C 12.4 °C 1014.4 hPa SSE 13.0 km/h 13.0 km/h 44 % 0.0 mm 0.0 W/m2 CLR
22:16 25.5 °C 12.3 °C 1014.4 hPa SSE 14.8 km/h 14.8 km/h 44 % 0.0 mm 0.0 W/m2 CLR
22:21 25.4 °C 12.2 °C 1014.4 hPa SE 14.8 km/h 14.8 km/h 44 % 0.0 mm 0.0 W/m2 CLR
22:26 25.3 °C 12.2 °C 1014.8 hPa SE 13.0 km/h 13.0 km/h 44 % 0.0 mm 0.0 W/m2 CLR
22:31 25.2 °C 12.1 °C 1014.8 hPa SSE 16.7 km/h 16.7 km/h 44 % 0.0 mm 0.0 W/m2 CLR
22:36 25.1 °C 11.9 °C 1014.8 hPa SSE 11.1 km/h 11.1 km/h 44 % 0.0 mm 0.0 W/m2 CLR
22:41 24.9 °C 11.8 °C 1014.8 hPa SE 13.0 km/h 13.0 km/h 44 % 0.0 mm 0.0 W/m2 CLR
22:46 24.8 °C 11.7 °C 1014.8 hPa SSE 9.3 km/h 9.3 km/h 44 % 0.0 mm 0.0 W/m2 CLR
22:51 24.7 °C 11.7 °C 1014.8 hPa Calm     44 % 0.0 mm 0.0 W/m2 CLR
22:56 24.5 °C 11.4 °C 1015.1 hPa SSE 8.0 km/h 8.0 km/h 44 % 0.0 mm 0.0 W/m2 CLR
23:01 24.4 °C 11.4 °C 1015.1 hPa SSE 7.4 km/h 7.4 km/h 44 % 0.0 mm 0.0 W/m2 CLR
23:06 24.4 °C 11.3 °C 1015.1 hPa Calm     44 % 0.0 mm 0.0 W/m2 CLR
23:11 24.3 °C 11.2 °C 1015.1 hPa Calm     44 % 0.0 mm 0.0 W/m2 CLR
23:16 24.1 °C 11.4 °C 1015.1 hPa Calm     45 % 0.0 mm 0.0 W/m2 CLR
23:21 23.9 °C 11.6 °C 1015.1 hPa Calm     46 % 0.0 mm 0.0 W/m2 CLR
23:26 23.6 °C 11.6 °C 1015.1 hPa Calm     47 % 0.0 mm 0.0 W/m2 CLR
23:31 23.4 °C 11.8 °C 1015.1 hPa Calm     48 % 0.0 mm 0.0 W/m2 CLR
23:36 23.2 °C 11.8 °C 1015.1 hPa Calm     49 % 0.0 mm 0.0 W/m2 CLR
23:41 23.0 °C 12.0 °C 1015.1 hPa Calm     50 % 0.0 mm 0.0 W/m2 CLR
23:46 22.9 °C 11.9 °C 1015.1 hPa Calm     50 % 0.0 mm 0.0 W/m2 CLR
23:51 22.7 °C 12.0 °C 1015.1 hPa Calm     51 % 0.0 mm 0.0 W/m2 CLR
23:56 22.6 °C 12.2 °C 1015.1 hPa Calm     52 % 0.0 mm 0.0 W/m2 CLR
Lo Temps de Massalio
Compliments of Weather Underground - 1.25 mb